Flag for Switzerland Weather past 2 weeks in Muttenz, Basel-Land, Switzerland

Now
43 °F

Passing clouds.


Feels Like: 37 °F
Forecast: 39 / 46 °F
Wind: 9 mph from Northwest

Location: Bale-Mulhouse

Current Time: Apr 1, 2015 at 3:56:10 AM

Latest Report: Apr 1, 2015 at 3:30 AM


Visibility: N/A

Pressure: 30.09 "Hg

Humidity: 76%

Dew point: 36 °F

Location of MuttenzLocation

Historic Weather in Muttenz — Graph

°F

Muttenz temperature yesterday

Maximum temperature yesterday: 57 °F (at 5:00 AM)
Minimum temperature yesterday: 50 °F (at 12:00 AM)
Average temperature yesterday: 54 °F

Past Weeks' High & Low Weather Summary

 TemperatureHumidityPressure
High64 °F (Mar 17, 3:30 PM)100% (Mar 17, 3:30 AM)30.27 "Hg (Mar 17, 3:30 AM)
Low30 °F (Mar 17, 4:00 AM)37% (Mar 17, 3:30 PM)29.62 "Hg (Mar 25, 6:00 AM)
Average47 °F72%29.99 "Hg
* Reported Mar 17 1:00 AM — Apr 1 2:30 AM, Muttenz, Weather by CustomWeather, © 2015

Note: Actual official high and low records may vary slightly from our data, if they occured in-between our weather recording intervals... More about our weather records

Advertising

Muttenz weather history for previous 24 hours

 ConditionsComfort  
Time TempWeatherWind HumidityBarometerVisibility
2:30 AM
Wed, Apr 1
45 °FPartly cloudy.18 mph76%30.09 "HgN/A
2:00 AM43 °FLight rain. Fog.28 mph81%30.09 "Hg1 mi
1:30 AM45 °FLight rain. Passing clouds.20 mph76%30.09 "HgN/A
1:00 AM46 °FLight rain. Passing clouds.22 mph71%30.09 "HgN/A
12:30 AM48 °FPassing clouds.18 mph58%30.04 "HgN/A
12:00 AM48 °FPassing clouds.15 mph58%30.07 "HgN/A
11:30 PM
Tue, Mar 31
50 °FPassing clouds.17 mph54%30.04 "HgN/A
11:00 PM50 °FPassing clouds.16 mph54%30.04 "HgN/A
10:30 PM50 °FPassing clouds.15 mph54%30.04 "HgN/A
10:00 PM52 °FSprinkles. Passing clouds.20 mph54%30.04 "HgN/A
9:30 PM50 °FPassing clouds.14 mph58%30.04 "HgN/A
9:00 PM50 °FPassing clouds.16 mph62%30.01 "HgN/A
8:30 PM50 °FPassing clouds.10 mph62%30.01 "HgN/A
8:00 PM52 °FPassing clouds.15 mph58%30.01 "HgN/A
7:30 PM52 °FPassing clouds.16 mph62%29.98 "HgN/A
7:00 PM52 °FScattered clouds.22 mph62%29.98 "HgN/A
6:30 PM54 °FScattered clouds.23 mph58%29.95 "HgN/A
6:00 PM57 °FPassing clouds.24 mph55%29.92 "HgN/A
5:30 PM57 °FScattered clouds.23 mph59%29.89 "HgN/A
5:00 PM55 °FScattered clouds.25 mph67%29.89 "HgN/A
4:30 PM55 °FScattered showers. Broken clouds.26 mph67%29.89 "HgN/A
4:00 PM55 °FBroken clouds.26 mph67%29.86 "HgN/A
3:30 PM55 °FSprinkles. Broken clouds.22 mph67%29.89 "HgN/A
3:00 PM57 °FScattered clouds.22 mph63%29.89 "HgN/A
2:30 PM57 °FScattered showers. Partly sunny.25 mph67%29.89 "HgN/A
2:00 PM57 °FPartly sunny.29 mph63%29.89 "HgN/A
1:30 PM57 °FPartly sunny.30 mph63%29.86 "HgN/A
1:00 PM57 °FPartly sunny.30 mph67%29.86 "HgN/A
12:30 PM57 °FScattered clouds.28 mph72%29.86 "HgN/A
12:00 PM55 °FLight rain. Partly sunny.30 mph77%29.86 "HgN/A
11:30 AM55 °FLight rain. Partly sunny.21 mph72%29.86 "HgN/A
11:00 AM57 °FLight rain. Partly sunny.25 mph63%29.86 "HgN/A
10:30 AM57 °FLight rain. Partly sunny.26 mph63%29.86 "HgN/A
10:00 AM57 °FPartly sunny.21 mph63%29.83 "HgN/A
9:30 AM57 °FPartly sunny.18 mph63%29.83 "HgN/A
9:00 AM57 °FPartly sunny.20 mph63%29.83 "HgN/A
8:30 AM57 °FPartly sunny.22 mph63%29.86 "HgN/A
8:00 AM55 °FPassing clouds.25 mph67%29.86 "HgN/A
7:30 AM57 °FPassing clouds.25 mph67%29.86 "HgN/A
7:00 AM57 °FLight rain. Passing clouds.24 mph67%29.83 "HgN/A
6:30 AM57 °FPassing clouds.22 mph72%29.83 "HgN/A
6:00 AM57 °FLight rain. Passing clouds.24 mph72%29.80 "HgN/A
5:30 AM57 °FPassing clouds.25 mph72%29.80 "HgN/A
5:00 AM57 °FPassing clouds.18 mph72%29.83 "HgN/A
4:30 AM55 °FMostly cloudy.16 mph77%29.83 "HgN/A
4:00 AM54 °FLight rain. Mostly cloudy.14 mph82%29.83 "HgN/A
3:30 AM54 °FPartly cloudy.14 mph77%29.86 "HgN/A
3:00 AM52 °FMostly cloudy.3 mph77%29.89 "HgN/A
Weather by CustomWeather, © 2015

See weather overviewHow to use our weather pages